Regional Weather Roundup
Issued by NWS Newport/Morehead, NC

Current Version | Previous Version | Graphics & Text | Print | Product List | Glossary Off
Versions: 1 2 3 4 5 6 7 8 9 10 11 12 13 14 15 16 17 18 19 20 21 22 23 24 25 26 27 28 29 30 31 32 33 34 35 36 37 38 39 40 41 42 43 44 45 46 47 48 49 50

000
ASUS42 KMHX 220622
RWRMHX
WEATHER ROUNDUP FOR EASTERN NORTH CAROLINA
NATIONAL WEATHER SERVICE NEWPORT/MOREHEAD CITY NC
200 AM EDT MON SEP 22 2014

NOTE: "FAIR" INDICATES FEW OR NO CLOUDS BELOW 12,000 FEET
WITH NO SIGNIFICANT WEATHER AND/OR OBSTRUCTIONS TO VISIBILITY

NCZ015>017-031-032-045>047-102-103-220700-
NORTH COAST

CITY           SKY/WX    TMP DP  RH WIND       PRES   REMARKS
EDENTON        MOCLDY    74  66  75 W5        29.84R
ELIZABETH CITY CLEAR     72  65  78 SW12      29.82S
KITTY HAWK     CLEAR     75  65  72 SW10G17   29.82R
MANTEO         PTCLDY    74  66  75 SW14      29.84R

$$

NCZ045>047-081-094-103-104-220700-
CENTRAL COAST

CITY           SKY/WX    TMP DP  RH WIND       PRES   REMARKS
FRISCO         CLEAR     75  71  87 W14G24    29.87S
SWANQUARTER      N/A     75 N/A N/A W8G15     29.82S

$$

NCZ095-097-098-100-101-220700-
SOUTHERN COAST

CITY           SKY/WX    TMP DP  RH WIND       PRES   REMARKS
BEAUFORT       CLEAR     78  72  81 SW12      29.88F
CEDAR ISLAND     N/A     75 N/A N/A SW7G14    29.91S
JACKSONVILLE   CLEAR     72  66  81 SW8       29.88S
NEWPORT        NOT AVBL
PINEY ISLAND   CLEAR     76  68  76 SW9       29.87S
WILMINGTON     CLEAR     74  68  81 SW8       29.90S


$$

NCZ011>013-027>030-043-044-078>080-089-090>093-098-220700-
COASTAL PLAIN

CITY           SKY/WX    TMP DP  RH WIND       PRES   REMARKS
AHOSKIE        CLOUDY    71  65  83 CALM      29.85R
CLINTON        MOCLDY    73  67  83 SW3       29.88S
ELIZABETHTOWN  PTCLDY    72  65  77 SW5       29.89S
GOLDSBORO      MOCLDY    74  70  87 CALM      29.84F
GREENVILLE     MOCLDY    73  66  78 W3        29.88S
HAVELOCK       CLEAR     73  66  78 SW8       29.89S
KENANSVILLE    CLOUDY    73  64  74 SW5       29.88S
KINSTON        PTCLDY    73  65  77 SW6       29.86F
NEW BERN       CLEAR     74  65  73 SW7       29.88S
RICHLANDS      CLEAR     72  63  73 SW8       29.88S
ROANOKE RAPIDS NOT AVBL
ROCKY MOUNT    CLOUDY    71  68  90 S5        29.85S
WASHINGTON     CLEAR     70  65  84 SW3       29.85F
WHITEVILLE     CLEAR     73  64  74 SW6       29.90S

$$

AMZ130-135-150-152-154-156-158-170-250-252-270-ANZ085-086-088-633-658-670-220700-
MARINE OBSERVATIONS

STATION/POSITION TIME  TEMP    WIND        PRES    WAVE   SWELL
                       AIR SEA DIR/SP/G            HT/PER HT/PER
                 (UTC) (F)     (DEG/KT/KT) (MB)    (FT/S) (FT/S)
CHESAPEAKE LIGHT 0600   76     250/ 22/ 23 1009.1
BUOY 44014       0600   75 74  240/ 17/ 21 1008.3    6/ 9   5/ 9
DUCK             0600   75 74  230/ 13/ 17 1009.0
2E DUCK          0600                        N/A     3/ 9
OREGON INLET     0600   75 76  220/ 13/ 16 1010.3
BUOY 44095       0600      74                N/A     5/ 9   2/11
20E OREGON INLET NOT AVBL
HATTERAS CG      NOT AVBL
DIAMOND BUOY     0600   81     240/ 23/ 27 1011.1    7/ 6   3/ 9
CAPE LOOKOUT     0600   79     230/ 11/ 14 1011.9
BEAUFORT LAB     0600   78 75  250/  9/ 13 1011.4
30 SE NEW RIVER  0600   81 82  240/ 21/ 25 1011.7    5/ 5   2/ 9
5 SE WRIGHTSVILL 0600   76 79  250/ 17/ 19   N/A
BUOY 41002       0505   80 81  260/ 14/ 16 1015.8    6/ 8   5/ 8
BUOY 41004       0600   81 81  240/ 16/ 19 1013.8    4/ 4   2/ 9

$$


USA.gov is the U.S. government's official web portal to all federal, state and local government web resources and services.